TimeCDT,TemperatureF,Dew PointF,Humidity,Sea Level PressureIn,VisibilityMPH,Wind Direction,Wind SpeedMPH,Gust SpeedMPH,PrecipitationIn,Events,Conditions,WindDirDegrees,DateUTC
12:15 AM,30.2,23.0,75,30.05,10.0,NE,8.1,-,N/A,,Clear,50,2012-11-02 05:15:00
12:35 AM,28.4,23.0,80,30.05,10.0,NE,8.1,-,N/A,,Clear,50,2012-11-02 05:35:00
12:55 AM,28.4,23.0,80,30.04,10.0,NE,8.1,-,N/A,,Clear,50,2012-11-02 05:55:00
1:15 AM,28.4,23.0,80,30.04,10.0,ENE,10.4,-,N/A,,Clear,60,2012-11-02 06:15:00
1:35 AM,28.4,23.0,80,30.04,10.0,ENE,8.1,-,N/A,,Clear,70,2012-11-02 06:35:00
1:55 AM,28.4,21.2,74,30.04,10.0,ENE,10.4,-,N/A,,Clear,60,2012-11-02 06:55:00
2:15 AM,28.4,23.0,80,30.03,10.0,ENE,9.2,-,N/A,,Clear,70,2012-11-02 07:15:00
2:35 AM,28.4,23.0,80,30.02,10.0,ENE,12.7,-,N/A,,Clear,70,2012-11-02 07:35:00
2:55 AM,28.4,23.0,80,30.02,10.0,ENE,9.2,-,N/A,,Clear,70,2012-11-02 07:55:00
3:15 AM,30.2,23.0,75,30.02,10.0,East,9.2,-,N/A,,Clear,90,2012-11-02 08:15:00
3:35 AM,30.2,21.2,69,30.02,10.0,East,11.5,-,N/A,,Clear,80,2012-11-02 08:35:00
3:55 AM,30.2,21.2,69,30.03,10.0,East,10.4,-,N/A,,Clear,90,2012-11-02 08:55:00
4:15 AM,30.2,21.2,69,30.03,10.0,East,10.4,-,N/A,,Clear,80,2012-11-02 09:15:00
4:35 AM,30.2,23.0,75,30.02,10.0,East,11.5,-,N/A,,Clear,100,2012-11-02 09:35:00
4:55 AM,30.2,23.0,75,30.03,10.0,East,6.9,-,N/A,,Clear,100,2012-11-02 09:55:00
5:15 AM,30.2,23.0,75,30.02,10.0,East,10.4,-,N/A,,Clear,100,2012-11-02 10:15:00
5:35 AM,30.2,23.0,75,30.02,10.0,East,13.8,-,N/A,,Clear,90,2012-11-02 10:35:00
5:55 AM,30.2,23.0,75,30.02,10.0,East,10.4,-,N/A,,Clear,80,2012-11-02 10:55:00
6:15 AM,30.2,23.0,75,30.02,10.0,East,10.4,-,N/A,,Clear,80,2012-11-02 11:15:00
6:35 AM,30.2,23.0,75,30.03,10.0,East,9.2,-,N/A,,Clear,80,2012-11-02 11:35:00
6:55 AM,30.2,21.2,69,30.03,10.0,ENE,10.4,-,N/A,,Clear,70,2012-11-02 11:55:00
7:15 AM,30.2,21.2,69,30.04,10.0,ENE,9.2,-,N/A,,Clear,70,2012-11-02 12:15:00
7:35 AM,30.2,21.2,69,30.04,10.0,East,10.4,16.1,N/A,,Clear,80,2012-11-02 12:35:00
7:55 AM,30.2,23.0,75,30.04,10.0,East,10.4,-,N/A,,Clear,80,2012-11-02 12:55:00
8:15 AM,30.2,23.0,75,30.05,10.0,East,9.2,-,N/A,,Clear,80,2012-11-02 13:15:00
8:35 AM,30.2,23.0,75,30.05,10.0,East,10.4,-,N/A,,Clear,80,2012-11-02 13:35:00
8:55 AM,30.2,23.0,75,30.06,10.0,East,10.4,-,N/A,,Partly Cloudy,90,2012-11-02 13:55:00
9:15 AM,30.2,24.8,80,30.08,10.0,East,9.2,-,N/A,,Scattered Clouds,80,2012-11-02 14:15:00
9:35 AM,30.2,23.0,75,30.08,10.0,East,9.2,-,N/A,,Overcast,80,2012-11-02 14:35:00
9:55 AM,32.0,23.0,69,30.08,10.0,East,10.4,-,N/A,,Overcast,80,2012-11-02 14:55:00
10:15 AM,32.0,24.8,75,30.09,10.0,East,10.4,-,N/A,,Overcast,80,2012-11-02 15:15:00
10:35 AM,32.0,24.8,75,30.10,10.0,East,9.2,-,N/A,,Overcast,80,2012-11-02 15:35:00
10:55 AM,32.0,24.8,75,30.09,10.0,East,10.4,-,N/A,,Overcast,80,2012-11-02 15:55:00
11:15 AM,32.0,24.8,75,30.09,10.0,East,10.4,-,N/A,,Overcast,80,2012-11-02 16:15:00
11:35 AM,33.8,24.8,70,30.09,10.0,East,11.5,-,N/A,,Overcast,80,2012-11-02 16:35:00
11:55 AM,33.8,24.8,70,30.10,10.0,East,9.2,-,N/A,,Overcast,80,2012-11-02 16:55:00
12:15 PM,33.8,24.8,70,30.10,10.0,ENE,10.4,-,N/A,,Overcast,70,2012-11-02 17:15:00
12:35 PM,33.8,24.8,70,30.10,10.0,East,8.1,-,N/A,,Overcast,80,2012-11-02 17:35:00
12:55 PM,33.8,24.8,70,30.09,10.0,ENE,8.1,-,N/A,,Overcast,70,2012-11-02 17:55:00
1:15 PM,33.8,24.8,70,30.08,10.0,ENE,8.1,-,N/A,,Overcast,70,2012-11-02 18:15:00
1:35 PM,35.6,24.8,65,30.09,10.0,ENE,9.2,-,N/A,,Overcast,60,2012-11-02 18:35:00
1:55 PM,35.6,24.8,65,30.08,10.0,ENE,9.2,-,N/A,,Overcast,70,2012-11-02 18:55:00
2:15 PM,35.6,24.8,65,30.07,10.0,ENE,9.2,-,N/A,,Overcast,70,2012-11-02 19:15:00
2:35 PM,35.6,26.6,70,30.07,10.0,ENE,9.2,-,N/A,,Overcast,70,2012-11-02 19:35:00
2:55 PM,35.6,26.6,70,30.06,10.0,East,8.1,-,N/A,,Overcast,80,2012-11-02 19:55:00
3:15 PM,35.6,26.6,70,30.07,10.0,ENE,9.2,-,N/A,,Overcast,70,2012-11-02 20:15:00
3:35 PM,35.6,26.6,70,30.07,10.0,ENE,10.4,-,N/A,,Overcast,70,2012-11-02 20:35:00
3:55 PM,35.6,26.6,70,30.07,10.0,East,9.2,-,N/A,,Overcast,90,2012-11-02 20:55:00
4:15 PM,35.6,26.6,70,30.06,10.0,East,9.2,-,N/A,,Overcast,80,2012-11-02 21:15:00
4:35 PM,35.6,26.6,70,30.07,10.0,East,9.2,-,N/A,,Overcast,90,2012-11-02 21:35:00
4:55 PM,35.6,26.6,70,30.07,10.0,East,8.1,-,N/A,,Overcast,90,2012-11-02 21:55:00
5:15 PM,35.6,26.6,70,30.07,10.0,East,6.9,-,N/A,,Overcast,80,2012-11-02 22:15:00
5:35 PM,35.6,26.6,70,30.08,10.0,East,5.8,-,N/A,,Overcast,80,2012-11-02 22:35:00
5:55 PM,35.6,26.6,70,30.09,10.0,ENE,5.8,-,N/A,,Overcast,70,2012-11-02 22:55:00
6:15 PM,35.6,26.6,70,30.09,10.0,ENE,6.9,-,N/A,,Overcast,70,2012-11-02 23:15:00
6:35 PM,35.6,26.6,70,30.10,10.0,ENE,4.6,-,N/A,,Overcast,70,2012-11-02 23:35:00
6:55 PM,35.6,26.6,70,30.11,10.0,ENE,6.9,-,N/A,,Overcast,70,2012-11-02 23:55:00
7:15 PM,35.6,26.6,70,30.12,10.0,East,6.9,-,N/A,,Overcast,80,2012-11-03 00:15:00
7:35 PM,35.6,26.6,70,30.12,10.0,East,6.9,-,N/A,,Overcast,80,2012-11-03 00:35:00
7:55 PM,35.6,26.6,70,30.12,10.0,ENE,6.9,-,N/A,,Overcast,70,2012-11-03 00:55:00
8:15 PM,35.6,26.6,70,30.12,10.0,ENE,5.8,-,N/A,,Overcast,70,2012-11-03 01:15:00
8:35 PM,35.6,26.6,70,30.12,10.0,ENE,4.6,-,N/A,,Overcast,70,2012-11-03 01:35:00
8:55 PM,35.6,26.6,70,30.13,10.0,ENE,4.6,-,N/A,,Overcast,60,2012-11-03 01:55:00
9:15 PM,35.6,26.6,70,30.13,10.0,ENE,4.6,-,N/A,,Overcast,70,2012-11-03 02:15:00
9:35 PM,35.6,26.6,70,30.13,10.0,East,5.8,-,N/A,,Overcast,80,2012-11-03 02:35:00
9:55 PM,35.6,26.6,70,30.13,10.0,East,5.8,-,N/A,,Overcast,80,2012-11-03 02:55:00
10:15 PM,35.6,28.4,75,30.13,10.0,East,4.6,-,N/A,,Overcast,80,2012-11-03 03:15:00
10:35 PM,35.6,28.4,75,30.13,10.0,East,4.6,-,N/A,,Overcast,80,2012-11-03 03:35:00
10:55 PM,35.6,28.4,75,30.14,10.0,ENE,3.5,-,N/A,,Overcast,60,2012-11-03 03:55:00
11:15 PM,35.6,28.4,75,30.15,10.0,ENE,4.6,-,N/A,,Overcast,60,2012-11-03 04:15:00
11:35 PM,35.6,26.6,70,30.14,10.0,East,5.8,-,N/A,,Overcast,90,2012-11-03 04:35:00
11:55 PM,35.6,28.4,75,30.14,10.0,East,5.8,-,N/A,,Overcast,100,2012-11-03 04:55:00